Pescara International Airport

Jump to: basic info | weather | frequencies | runways | comments

Related pages: nearby airports | nearby navaids | notams | map

Basic information (top)

Codes: PSR LIBP
Location: lon 42.431702, lat 14.181100, elev 48 ft / 15 m msl
Status: medium_airport
Scheduled airline service: yes
Links: Wikipedia Mobile

Weather (top)

Current conditions (rec'd 2014/11/29 01:50Z):

LIBP 290150Z 23004KT 2000 BR NSC 08/06 Q1014

Airport forecast (rec'd 2014/11/28 00:32Z):

TAF LIBP 282300Z 2900/2924 VRB04KT 3000 BR SCT030 
      TEMPO 2902/2907 0500 FG BKN005 
      BECMG 2908/2910 6000

Frequencies (top)

Verify before use: may be inaccurate or out of date.

APP: 120.05 MHz (APP)
TWR: 118.45 MHz (TWR)

Runways (top)

04/22: 7,933 x 148 ft (2,418 x 45 m) — paved — lighted — threshold 04 displaced 344 ft (105 m) — threshold 22 displaced 617 ft (188 m)

Latest comments (top)

No comments yet for Pescara International Airport

More... (top)

See also NOTAMs and nearby airports and navaids, or visit the Pescara International Airport page at the main OurAirports website..